Regional Weather Roundup
Issued by NWS

Home | Current Version | Previous Version | Text Only | Print | Product List | Glossary On
Versions: 1 2 3 4 5 6 7 8 9 10 11 12 13 14 15 16 17 18 19 20 21 22 23 24 25 26 27 28 29 30 31 32 33 34 35 36 37 38 39 40 41 42 43 44 45 46 47 48 49 50
000
ASUS42 KFFC 021303
RWRGA
WEATHER ROUNDUP FOR GEORGIA
NATIONAL WEATHER SERVICE PEACHTREE CITY GA
800 AM EST MON MAR 02 2015

NOTE: "FAIR" INDICATES FEW OR NO CLOUDS BELOW 12,000 FEET WITH NO
SIGNIFICANT WEATHER AND/OR OBSTRUCTIONS TO VISIBILITY.

* = USE WITH CAUTION. THE STATIONS MARKED WITH AN ASTERISK MAY NOT
REPORT WEATHER SUCH AS PRECIPITATION, FOG, OR THUNDER AND ARE NOT
QUALITY CONTROLLED BY NWS.

THE REMARK "TC" DENOTES TEMPERATURE READING IN DEGREES CELSIUS.

GAZ001>058-021400-
NORTH GEORGIA

CITY           SKY/WX    TMP DP  RH WIND       PRES   REMARKS
ATLANTA        FOG       47  45  93 NW5       30.31R VSB 1
ATHENS         CLOUDY    46  45  96 VRB3      30.28S FOG
CHAMBLEE       CLOUDY    46  46 100 W5        30.31R FOG
PEACHTREE CITY CLOUDY    47  46  97 NW3       30.32R FOG
ROME           CLOUDY    46  45  96 N3        30.33R FOG
WEST ATLANTA   CLOUDY    47  45  93 CALM      30.32R FOG
GAINESVILLE    CLOUDY    48  48 100 W9        30.27R FOG
CARTERSVILLE   FOG       46  44  93 CALM      30.33S VSB 1


CITY           SKY/WX    TMP DP  RH WIND       PRES   REMARKS
DALTON*        CLOUDY    45  45 100 CALM      30.34R FOG
LAWRENCEVILLE* FOG       46  43  87 SW7       30.28R VSB 1
MARIETTA       DRIZZLE   47  47 100 W8        30.31R FOG
KENNESAW*      FOG       46  45  93 W5        30.33S VSB 1/2
$$

GAZ059>098-102>109-021400-
CENTRAL GEORGIA

CITY           SKY/WX    TMP DP  RH WIND       PRES   REMARKS
AUGUSTA-BUSH   CLOUDY    46  45  96 W5        30.30R FOG
AUGUSTA-DANIEL CLOUDY    49  47  93 W6        30.30R FOG
COLUMBUS       CLOUDY    48  48 100 CALM      30.33R FOG
MACON          FOG       45  45 100 CALM      30.32R VSB 1/4
ROBINS AFB     CLOUDY    47  47 100 NW2       30.33R FOG


CITY           SKY/WX    TMP DP  RH WIND       PRES   REMARKS
LAGRANGE*      FOG       50  50  99 CALM      30.32S VSB 1/2
SYLVANIA*      FOG       47  47 100 CALM      30.32R VSB 1/4
MILLEDGEVILLE* CLOUDY    45  45 100 CALM      30.32R FOG
$$

GAZ099>101-110>166-021400-
SOUTH GEORGIA

CITY           SKY/WX    TMP DP  RH WIND       PRES   REMARKS
SAVANNAH       FOG       48  47  96 CALM      30.31S VSB 3/4
VALDOSTA       FOG       53  53 100 N3        30.31R VSB<1/4
ALMA           FOG       51  50  96 CALM      30.31R VSB 1/4
ST SIMONS      FOG       51  51 100 VRB5      30.32R VSB 1/2
FT STEWART     FOG       49  49  97 CALM      30.29R VSB 1/4
ALBANY         FOG       50  50 100 CALM      30.35R VSB 1/4
HUNTER AFB     CLOUDY    49  49 100 W1        30.29R
MOODY AFB      FOG       52  51  97 SE1       30.29F VSB 1/4
BRUNSWICK      CLOUDY    52  52 100 SE5       30.32F VSB 1/4


CITY           SKY/WX    TMP DP  RH WIND       PRES   REMARKS
BAINBRIDGE*    FOG       54  54 100 N5        30.32R VSB<1/4
MOULTRIE*      FOG       52  52 100 CALM      30.31S VSB 1/4
VIDALIA*       FOG       48  48 100 CALM      30.31R VSB<1/4
WAYCROSS*      FOG       55  55 100 CALM      30.31S VSB<1/4
DOUGLAS*       FOG       52  52 100 CALM      30.32S VSB 1/4
$$


USA.gov is the U.S. government's official web portal to all federal, state and local government web resources and services.